| time (UTC) | temp F | wind direction | speed knots | gust knots | rain 1hr in | rain 24hr in | rain mn in | humidity % | barometer mb |
| 20260504050024 | 51 | 178 | 3.5 | 0.0 | 0.00 | 0.00 | 0.00 | 100 | 1006.6 |
| 20260504044520 | 51 | 178 | 3.5 | 0.0 | 0.00 | 0.00 | 0.00 | 100 | 1006.8 |
| 20260504043007 | 51 | 178 | 5.2 | 0.0 | 0.00 | 0.00 | 0.00 | 100 | 1006.9 |
| 20260504041658 | 51 | 178 | 4.3 | 0.0 | 0.00 | 0.00 | 0.00 | 100 | 1007.1 |
| 20260504040149 | 51 | 178 | 4.3 | 0.0 | 0.00 | 0.00 | 0.00 | 100 | 1007.1 |
| 20260504034639 | 51 | 178 | 4.3 | 0.0 | 0.00 | 0.00 | 0.01 | 100 | 1007.0 |
| 20260504033029 | 51 | 178 | 5.2 | 0.0 | 0.00 | 0.00 | 0.01 | 100 | 1007.2 |
| 20260504031521 | 50 | 178 | 4.3 | 0.0 | 0.00 | 0.00 | 0.01 | 100 | 1007.4 |
| 20260504030014 | 50 | 178 | 3.5 | 0.0 | 0.00 | 0.00 | 0.01 | 100 | 1007.5 |
| 20260504024702 | 50 | 178 | 4.3 | 0.0 | 0.00 | 0.00 | 0.01 | 100 | 1007.5 |
| 20260504023050 | 50 | 188 | 1.7 | 0.0 | 0.00 | 0.00 | 0.01 | 100 | 1007.6 |
| 20260504021543 | 49 | 291 | 0.0 | 0.0 | 0.00 | 0.00 | 0.01 | 100 | 1007.8 |
| 20260504020043 | 49 | 291 | 0.9 | 0.0 | 0.00 | 0.00 | 0.01 | 100 | 1007.8 |
| 20260504014533 | 49 | 291 | 2.6 | 0.0 | 0.00 | 0.00 | 0.01 | 100 | 1008.1 |
| 20260504013029 | 48 | 294 | 1.7 | 0.0 | 0.00 | 0.00 | 0.01 | 100 | 1008.1 |
| 20260504011604 | 48 | 295 | 3.5 | 0.0 | 0.00 | 0.00 | 0.01 | 100 | 1008.3 |
| 20260504010053 | 49 | 302 | 7.0 | 0.0 | 0.00 | 0.00 | 0.01 | 100 | 1008.5 |
| 20260504004615 | 52 | 306 | 7.0 | 0.0 | 0.00 | 0.00 | 0.00 | 13 | 1008.1 |
| 20260504003138 | 53 | 306 | 6.1 | 0.0 | 0.00 | 0.00 | 0.00 | 50 | 1008.2 |
| 20260504001527 | 53 | 303 | 0.9 | 0.0 | 0.00 | 0.00 | 0.00 | 54 | 1007.9 |
| 20260504000018 | 53 | 11 | 0.0 | 0.0 | 0.00 | 0.00 | 0.00 | 52 | 1007.5 |
| 20260503234508 | 54 | 10 | 0.0 | 0.0 | 0.00 | 0.00 | 0.00 | 52 | 1007.3 |
| 20260503233102 | 54 | 11 | 1.7 | 0.0 | 0.00 | 0.00 | 0.00 | 54 | 1007.0 |
| 20260503231550 | 53 | 10 | 1.7 | 0.0 | 0.00 | 0.00 | 0.00 | 53 | 1007.1 |
| 20260503230100 | 52 | 10 | 0.0 | 0.0 | 0.00 | 0.00 | 0.00 | 54 | 1006.9 |
| 20260503224633 | 52 | 10 | 0.9 | 0.0 | 0.00 | 0.00 | 0.00 | 54 | 1007.5 |
| 20260503223023 | 53 | 346 | 4.3 | 0.0 | 0.00 | 0.00 | 0.00 | 54 | 1008.1 |
| 20260503221513 | 51 | 333 | 3.5 | 0.0 | 0.00 | 0.00 | 0.00 | 53 | 1007.9 |
| 20260503220004 | 52 | 26 | 0.9 | 0.0 | 0.00 | 0.00 | 0.00 | 51 | 1007.8 |
| 20260503214558 | 52 | 26 | 0.9 | 0.0 | 0.00 | 0.00 | 0.00 | 54 | 1007.7 |
| 20260503213045 | 52 | 26 | 0.9 | 0.0 | 0.00 | 0.00 | 0.00 | 55 | 1007.6 |
| 20260503211536 | 51 | 26 | 0.9 | 0.0 | 0.00 | 0.00 | 0.00 | 55 | 1007.7 |
| 20260503210129 | 50 | 26 | 1.7 | 0.0 | 0.00 | 0.00 | 0.00 | 55 | 1007.7 |
| 20260503204519 | 50 | 26 | 0.9 | 0.0 | 0.00 | 0.00 | 0.00 | 54 | 1008.0 |
| 20260503203030 | 49 | 26 | 1.7 | 0.0 | 0.00 | 0.00 | 0.00 | 54 | 1008.1 |
| 20260503201501 | 49 | 26 | 1.7 | 0.0 | 0.00 | 0.00 | 0.00 | 55 | 1008.4 |
| 20260503200053 | 49 | 19 | 2.6 | 0.0 | 0.00 | 0.00 | 0.00 | 53 | 1008.7 |
| 20260503194545 | 49 | 18 | 2.6 | 0.0 | 0.00 | 0.00 | 0.00 | 53 | 1008.9 |
| 20260503193038 | 49 | 11 | 2.6 | 0.0 | 0.00 | 0.00 | 0.00 | 53 | 1009.2 |
| 20260503191525 | 49 | 11 | 1.7 | 0.0 | 0.00 | 0.00 | 0.00 | 53 | 1009.5 |
| 20260503190034 | 49 | 11 | 1.7 | 0.0 | 0.00 | 0.00 | 0.00 | 53 | 1009.7 |
| 20260503184511 | 49 | 11 | 1.7 | 0.0 | 0.00 | 0.00 | 0.00 | 53 | 1009.7 |
| 20260503183103 | 49 | 11 | 1.7 | 0.0 | 0.00 | 0.00 | 0.00 | 54 | 1009.9 |
| 20260503181650 | 49 | 11 | 1.7 | 0.0 | 0.00 | 0.00 | 0.00 | 54 | 1010.0 |
| 20260503180143 | 49 | 5 | 2.6 | 0.0 | 0.00 | 0.00 | 0.00 | 55 | 1010.0 |
| 20260503174631 | 48 | 5 | 2.6 | 0.0 | 0.00 | 0.00 | 0.00 | 55 | 1010.1 |
| 20260503173022 | 49 | 360 | 2.6 | 0.0 | 0.00 | 0.00 | 0.00 | 54 | 1010.3 |
| 20260503171512 | 48 | 349 | 2.6 | 0.0 | 0.00 | 0.00 | 0.00 | 54 | 1010.4 |
| 20260503130143 | 42 | 300 | 6.1 | 0.0 | 0.00 | 0.00 | 0.00 | 100 | 1012.4 |
| 20260503100157 | 43 | 302 | 7.0 | 0.0 | 0.00 | 0.00 | 0.00 | 100 | 1011.4 |
| 20260503080146 | 43 | 311 | 7.0 | 0.0 | 0.00 | 0.00 | 0.00 | 100 | 1011.9 |
| 20260503071525 | 43 | 318 | 7.0 | 0.0 | 0.00 | 0.00 | 0.00 | 14 | 1011.6 |
| 20260503060140 | 43 | 315 | 6.1 | 0.0 | 0.00 | 0.00 | 0.00 | 2 | 1011.9 |
| 20260503054547 | 43 | 313 | 7.0 | 0.0 | 0.00 | 0.00 | 0.00 | 4 | 1011.9 |